Time,TemperatureF,DewpointF,PressureIn,WindDirection,WindDirectionDegrees,WindSpeedMPH,WindSpeedGustMPH,Humidity,HourlyPrecipIn,Conditions,Clouds,dailyrainin,SoftwareType,DateUTC
2015-05-24 00:05:00,62.8,51.9,30.12,SE,135,0.0,0.7,60,0.00,,,0.00,fowsr,2015-05-24 05:05:00,
2015-05-24 00:15:00,62.8,51.9,30.12,East,90,0.0,0.7,60,0.00,,,0.00,fowsr,2015-05-24 05:15:00,
2015-05-24 00:25:00,62.6,51.8,30.11,NE,45,0.0,1.6,60,0.00,,,0.00,fowsr,2015-05-24 05:25:00,
2015-05-24 00:35:00,62.6,51.8,30.10,West,270,1.6,2.2,60,0.00,,,0.00,fowsr,2015-05-24 05:35:00,
2015-05-24 00:45:00,62.8,51.6,30.10,SE,135,0.7,2.2,59,0.00,,,0.00,fowsr,2015-05-24 05:45:00,
2015-05-24 00:55:00,63.0,51.4,30.10,NE,45,1.6,2.2,58,0.00,,,0.00,fowsr,2015-05-24 05:55:00,
2015-05-24 01:05:00,63.1,51.2,30.11,NNW,337,0.7,3.1,57,0.00,,,0.00,fowsr,2015-05-24 06:05:00,
2015-05-24 01:15:00,63.1,51.2,30.10,ESE,112,1.6,3.1,57,0.00,,,0.00,fowsr,2015-05-24 06:15:00,
2015-05-24 01:25:00,63.1,50.9,30.09,SW,225,2.2,3.8,56,0.00,,,0.00,fowsr,2015-05-24 06:25:00,
2015-05-24 01:35:00,63.0,51.1,30.09,SE,135,0.7,1.6,57,0.00,,,0.00,fowsr,2015-05-24 06:35:00,
2015-05-24 01:45:00,62.6,50.7,30.09,ENE,67,0.7,1.6,57,0.00,,,0.00,fowsr,2015-05-24 06:45:00,
2015-05-24 01:55:00,62.4,51.3,30.09,SE,135,0.7,1.6,59,0.00,,,0.00,fowsr,2015-05-24 06:55:00,
2015-05-24 02:05:00,62.2,51.4,30.09,SE,135,0.7,1.6,60,0.00,,,0.00,fowsr,2015-05-24 07:05:00,
2015-05-24 02:15:00,62.2,51.8,30.09,SE,135,0.0,0.7,61,0.00,,,0.00,fowsr,2015-05-24 07:15:00,
2015-05-24 02:25:00,61.9,51.8,30.11,South,180,1.6,3.1,62,0.00,,,0.00,fowsr,2015-05-24 07:25:00,
2015-05-24 02:35:00,61.9,51.8,30.11,South,180,0.0,0.0,62,0.00,,,0.00,fowsr,2015-05-24 07:35:00,
2015-05-24 02:45:00,61.5,52.1,30.09,North,0,0.7,1.6,64,0.00,,,0.00,fowsr,2015-05-24 07:45:00,
2015-05-24 02:55:00,60.4,52.6,30.10,SE,135,0.0,1.6,69,0.01,,,0.01,fowsr,2015-05-24 07:55:00,
2015-05-24 03:05:00,59.7,52.8,30.10,East,90,0.0,0.7,72,0.01,,,0.01,fowsr,2015-05-24 08:05:00,
2015-05-24 03:15:00,59.5,52.9,30.09,South,180,0.0,1.6,73,0.01,,,0.01,fowsr,2015-05-24 08:15:00,
2015-05-24 03:25:00,59.5,52.9,30.09,SE,135,0.0,0.7,73,0.01,,,0.01,fowsr,2015-05-24 08:25:00,
2015-05-24 03:35:00,59.5,52.9,30.09,NE,45,0.0,0.7,73,0.01,,,0.01,fowsr,2015-05-24 08:35:00,
2015-05-24 03:45:00,59.5,52.6,30.09,SE,135,0.0,1.6,72,0.01,,,0.01,fowsr,2015-05-24 08:45:00,
2015-05-24 03:55:00,59.7,52.8,30.08,SE,135,0.0,1.6,72,0.00,,,0.01,fowsr,2015-05-24 08:55:00,
2015-05-24 04:05:00,59.9,52.7,30.08,SE,135,0.7,1.6,71,0.00,,,0.01,fowsr,2015-05-24 09:05:00,
2015-05-24 04:15:00,60.1,52.9,30.08,South,180,0.0,0.7,71,0.00,,,0.01,fowsr,2015-05-24 09:15:00,
2015-05-24 04:25:00,60.3,52.7,30.08,SE,135,0.7,1.6,70,0.00,,,0.01,fowsr,2015-05-24 09:25:00,
2015-05-24 04:35:00,60.3,52.7,30.07,SE,135,0.0,1.6,70,0.00,,,0.01,fowsr,2015-05-24 09:35:00,
2015-05-24 04:45:00,60.3,52.7,30.07,NE,45,0.0,0.7,70,0.00,,,0.01,fowsr,2015-05-24 09:45:00,
2015-05-24 04:55:00,60.1,52.6,30.07,SE,135,0.0,1.6,70,0.00,,,0.01,fowsr,2015-05-24 09:55:00,
2015-05-24 05:05:00,59.9,52.4,30.06,SE,135,0.7,1.6,70,0.00,,,0.01,fowsr,2015-05-24 10:05:00,
2015-05-24 05:15:00,60.1,52.6,30.06,South,180,0.0,0.7,70,0.00,,,0.01,fowsr,2015-05-24 10:15:00,
2015-05-24 05:25:00,60.1,52.6,30.06,SW,225,0.0,0.0,70,0.00,,,0.01,fowsr,2015-05-24 10:25:00,
2015-05-24 05:35:00,59.9,52.4,30.05,SE,135,0.7,1.6,70,0.00,,,0.01,fowsr,2015-05-24 10:35:00,
2015-05-24 05:45:00,60.1,52.3,30.04,SE,135,0.0,0.7,69,0.00,,,0.01,fowsr,2015-05-24 10:45:00,
2015-05-24 05:55:00,60.1,52.3,30.04,SE,135,0.0,0.7,69,0.00,,,0.01,fowsr,2015-05-24 10:55:00,
2015-05-24 06:05:00,60.3,52.1,30.04,SE,135,0.0,0.7,68,0.00,,,0.01,fowsr,2015-05-24 11:05:00,
2015-05-24 06:15:00,60.3,52.1,30.04,East,90,0.7,1.6,68,0.00,,,0.01,fowsr,2015-05-24 11:15:00,
2015-05-24 06:25:00,60.4,52.0,30.04,SE,135,0.0,1.6,67,0.00,,,0.01,fowsr,2015-05-24 11:25:00,
2015-05-24 06:35:00,60.6,52.2,30.04,SE,135,0.0,1.6,67,0.00,,,0.01,fowsr,2015-05-24 11:35:00,
2015-05-24 06:45:00,60.6,52.2,30.04,North,0,0.0,0.7,67,0.00,,,0.01,fowsr,2015-05-24 11:45:00,
2015-05-24 06:55:00,60.6,52.2,30.03,SE,135,0.0,0.7,67,0.00,,,0.01,fowsr,2015-05-24 11:55:00,
2015-05-24 07:05:00,60.8,52.0,30.03,SE,135,0.7,1.6,66,0.00,,,0.01,fowsr,2015-05-24 12:05:00,
2015-05-24 07:15:00,61.0,52.2,30.03,SE,135,0.0,0.7,66,0.00,,,0.01,fowsr,2015-05-24 12:15:00,
2015-05-24 07:25:00,61.2,52.7,30.04,NW,315,0.0,0.0,67,0.00,,,0.01,fowsr,2015-05-24 12:25:00,
2015-05-24 07:35:00,61.3,52.9,30.04,SE,135,0.0,0.0,67,0.00,,,0.01,fowsr,2015-05-24 12:35:00,
2015-05-24 07:45:00,61.5,53.3,30.05,NE,45,0.0,0.0,68,0.00,,,0.01,fowsr,2015-05-24 12:45:00,
2015-05-24 07:55:00,61.5,53.3,30.05,South,180,0.0,0.7,68,0.00,,,0.01,fowsr,2015-05-24 12:55:00,
2015-05-24 08:05:00,61.7,53.2,30.04,South,180,0.0,0.7,67,0.00,,,0.01,fowsr,2015-05-24 13:05:00,
2015-05-24 08:15:00,61.9,53.4,30.03,SE,135,0.0,0.7,67,0.00,,,0.01,fowsr,2015-05-24 13:15:00,
2015-05-24 08:25:00,62.1,53.5,30.03,NE,45,0.0,1.6,67,0.00,,,0.01,fowsr,2015-05-24 13:25:00,
2015-05-24 08:35:00,62.2,53.7,30.03,SE,135,0.7,1.6,67,0.00,,,0.01,fowsr,2015-05-24 13:35:00,
2015-05-24 08:45:00,62.8,53.9,30.03,South,180,0.0,0.7,66,0.00,,,0.01,fowsr,2015-05-24 13:45:00,
2015-05-24 08:55:00,63.0,53.8,30.03,West,270,0.0,0.7,65,0.00,,,0.01,fowsr,2015-05-24 13:55:00,
2015-05-24 09:05:00,63.1,53.9,30.03,SE,135,0.7,0.7,65,0.00,,,0.01,fowsr,2015-05-24 14:05:00,
2015-05-24 09:15:00,63.3,54.1,30.03,SE,135,0.0,0.0,65,0.00,,,0.01,fowsr,2015-05-24 14:15:00,
2015-05-24 09:25:00,63.5,54.3,30.03,SE,135,0.0,0.7,65,0.00,,,0.01,fowsr,2015-05-24 14:25:00,
2015-05-24 09:35:00,63.3,54.7,30.03,SE,135,0.7,1.6,67,0.00,,,0.01,fowsr,2015-05-24 14:35:00,
2015-05-24 09:45:00,63.1,55.2,30.02,SE,135,0.0,1.6,69,0.00,,,0.01,fowsr,2015-05-24 14:45:00,
2015-05-24 09:55:00,63.1,55.8,30.02,SE,135,0.7,1.6,71,0.00,,,0.01,fowsr,2015-05-24 14:55:00,
2015-05-24 10:05:00,63.1,56.1,30.01,SE,135,0.0,0.7,72,0.00,,,0.01,fowsr,2015-05-24 15:05:00,
2015-05-24 10:15:00,63.3,56.2,30.02,South,180,0.7,1.6,72,0.00,,,0.01,fowsr,2015-05-24 15:15:00,
2015-05-24 10:25:00,63.0,56.2,30.01,South,180,0.7,1.6,73,0.00,,,0.01,fowsr,2015-05-24 15:25:00,
2015-05-24 10:35:00,63.0,56.2,30.02,NNE,22,0.0,0.7,73,0.00,,,0.01,fowsr,2015-05-24 15:35:00,
2015-05-24 10:45:00,63.1,56.6,30.02,SE,135,0.7,2.2,74,0.00,,,0.01,fowsr,2015-05-24 15:45:00,
2015-05-24 10:55:00,63.0,56.5,30.02,SE,135,0.7,1.6,74,0.00,,,0.01,fowsr,2015-05-24 15:55:00,
2015-05-24 11:05:00,62.8,56.6,30.01,NE,45,0.7,2.2,75,0.00,,,0.01,fowsr,2015-05-24 16:05:00,
2015-05-24 11:15:00,62.2,56.9,30.02,SW,225,1.6,3.8,78,0.00,,,0.01,fowsr,2015-05-24 16:15:00,
2015-05-24 11:25:00,62.1,57.3,30.01,South,180,0.7,2.2,80,0.00,,,0.01,fowsr,2015-05-24 16:25:00,
2015-05-24 11:35:00,62.1,57.5,30.02,NW,315,0.7,1.6,81,0.00,,,0.01,fowsr,2015-05-24 16:35:00,
2015-05-24 11:45:00,62.1,57.8,30.01,North,0,0.7,2.2,82,0.00,,,0.01,fowsr,2015-05-24 16:45:00,
2015-05-24 11:55:00,62.1,57.8,30.01,East,90,1.6,3.1,82,0.00,,,0.01,fowsr,2015-05-24 16:55:00,
2015-05-24 12:05:00,62.2,58.2,30.00,South,180,1.6,2.2,83,0.00,,,0.01,fowsr,2015-05-24 17:05:00,
2015-05-24 12:15:00,62.6,58.3,30.00,North,0,0.7,1.6,82,0.00,,,0.01,fowsr,2015-05-24 17:15:00,
2015-05-24 12:25:00,62.6,58.3,30.00,SE,135,1.6,3.8,82,0.00,,,0.01,fowsr,2015-05-24 17:25:00,
2015-05-24 12:35:00,62.8,58.5,29.99,SE,135,1.6,3.1,82,0.00,,,0.01,fowsr,2015-05-24 17:35:00,
2015-05-24 12:45:00,62.8,58.5,29.99,East,90,0.0,0.7,82,0.01,,,0.02,fowsr,2015-05-24 17:45:00,
2015-05-24 12:55:00,62.6,58.3,29.99,SE,135,1.6,2.2,82,0.01,,,0.02,fowsr,2015-05-24 17:55:00,
2015-05-24 13:05:00,62.6,58.3,29.99,NNW,337,2.2,3.1,82,0.01,,,0.02,fowsr,2015-05-24 18:05:00,
2015-05-24 13:15:00,62.6,58.6,29.99,NE,45,0.7,1.6,83,0.01,,,0.02,fowsr,2015-05-24 18:15:00,
2015-05-24 13:25:00,62.4,58.4,29.99,ESE,112,2.2,3.8,83,0.01,,,0.02,fowsr,2015-05-24 18:25:00,
2015-05-24 13:35:00,62.4,58.6,29.98,SE,135,1.6,2.2,84,0.01,,,0.02,fowsr,2015-05-24 18:35:00,
2015-05-24 13:45:00,61.9,58.4,29.97,SE,135,0.7,3.1,85,0.02,,,0.04,fowsr,2015-05-24 18:45:00,
2015-05-24 13:55:00,61.7,58.4,29.97,SSW,202,2.2,3.8,86,0.01,,,0.04,fowsr,2015-05-24 18:55:00,
2015-05-24 14:05:00,61.2,57.9,29.97,South,180,0.7,1.6,86,0.02,,,0.05,fowsr,2015-05-24 19:05:00,
2015-05-24 14:25:00,60.6,57.9,29.95,East,90,0.0,0.7,88,0.02,,,0.05,fowsr,2015-05-24 19:25:00,
2015-05-24 14:35:00,60.4,57.9,29.95,East,90,2.2,3.1,89,0.04,,,0.06,fowsr,2015-05-24 19:35:00,
2015-05-24 14:45:00,60.4,57.9,29.95,South,180,0.7,1.6,89,0.04,,,0.06,fowsr,2015-05-24 19:45:00,
2015-05-24 14:55:00,60.8,58.3,29.94,NW,315,2.2,3.8,89,0.02,,,0.06,fowsr,2015-05-24 19:55:00,
2015-05-24 15:05:00,60.6,58.4,29.94,South,180,0.7,1.6,90,0.02,,,0.06,fowsr,2015-05-24 20:05:00,
2015-05-24 15:15:00,60.4,58.2,29.94,SE,135,1.6,2.2,90,0.01,,,0.06,fowsr,2015-05-24 20:15:00,
2015-05-24 15:25:00,60.3,58.2,29.93,West,270,1.6,2.2,91,0.01,,,0.06,fowsr,2015-05-24 20:25:00,
2015-05-24 15:35:00,60.3,58.2,29.93,South,180,2.2,3.1,91,0.01,,,0.06,fowsr,2015-05-24 20:35:00,
2015-05-24 15:45:00,60.1,58.3,29.93,SE,135,1.6,3.1,92,0.01,,,0.07,fowsr,2015-05-24 20:45:00,
2015-05-24 15:55:00,60.3,58.5,29.92,ESE,112,1.6,2.2,92,0.01,,,0.07,fowsr,2015-05-24 20:55:00,
2015-05-24 16:05:00,60.3,58.7,29.92,South,180,1.6,3.1,93,0.01,,,0.07,fowsr,2015-05-24 21:05:00,
2015-05-24 16:15:00,60.1,58.5,29.92,South,180,0.7,2.2,93,0.02,,,0.08,fowsr,2015-05-24 21:15:00,
2015-05-24 16:25:00,60.1,58.5,29.91,SE,135,0.7,2.2,93,0.02,,,0.08,fowsr,2015-05-24 21:25:00,
2015-05-24 16:35:00,60.1,58.5,29.91,East,90,0.7,1.6,93,0.04,,,0.09,fowsr,2015-05-24 21:35:00,
2015-05-24 16:45:00,60.1,58.5,29.91,SE,135,1.6,3.1,93,0.05,,,0.11,fowsr,2015-05-24 21:45:00,
2015-05-24 16:55:00,59.9,58.6,29.90,SE,135,0.0,1.6,94,0.04,,,0.11,fowsr,2015-05-24 21:55:00,
2015-05-24 17:05:00,59.9,58.6,29.90,SSE,157,1.6,2.2,94,0.04,,,0.11,fowsr,2015-05-24 22:05:00,
2015-05-24 17:15:00,59.7,58.4,29.90,North,0,2.2,3.1,94,0.06,,,0.13,fowsr,2015-05-24 22:15:00,
2015-05-24 17:25:00,59.7,58.4,29.90,South,180,1.6,2.2,94,0.06,,,0.14,fowsr,2015-05-24 22:25:00,
2015-05-24 17:35:00,59.5,58.4,29.90,SE,135,0.7,1.6,95,0.07,,,0.15,fowsr,2015-05-24 22:35:00,
2015-05-24 17:45:00,59.4,58.3,29.89,South,180,0.7,1.6,95,0.06,,,0.15,fowsr,2015-05-24 22:45:00,
2015-05-24 17:55:00,59.4,58.3,29.89,North,0,0.0,0.7,95,0.07,,,0.18,fowsr,2015-05-24 22:55:00,
2015-05-24 18:05:00,59.5,58.4,29.88,SE,135,1.6,2.2,95,0.09,,,0.20,fowsr,2015-05-24 23:05:00,
2015-05-24 18:15:00,59.4,58.3,29.88,SSE,157,0.0,2.2,95,0.11,,,0.21,fowsr,2015-05-24 23:15:00,
2015-05-24 18:25:00,59.4,58.3,29.87,SW,225,0.7,1.6,95,0.09,,,0.22,fowsr,2015-05-24 23:25:00,
2015-05-24 18:35:00,59.4,58.5,29.87,ESE,112,1.6,2.2,96,0.09,,,0.22,fowsr,2015-05-24 23:35:00,
2015-05-24 18:45:00,59.4,58.5,29.86,SE,135,2.2,3.8,96,0.09,,,0.24,fowsr,2015-05-24 23:45:00,
2015-05-24 18:55:00,59.4,58.5,29.86,North,0,0.7,2.2,96,0.06,,,0.24,fowsr,2015-05-24 23:55:00,
2015-05-24 19:05:00,59.4,58.5,29.85,ESE,112,0.7,2.2,96,0.06,,,0.24,fowsr,2015-05-25 00:05:00,
2015-05-24 19:15:00,59.2,58.3,29.85,ESE,112,0.7,2.2,96,0.05,,,0.25,fowsr,2015-05-25 00:15:00,
2015-05-24 19:25:00,59.2,58.5,29.85,ESE,112,2.2,3.1,97,0.05,,,0.25,fowsr,2015-05-25 00:25:00,
2015-05-24 19:35:00,59.2,58.5,29.85,SE,135,0.7,1.6,97,0.05,,,0.26,fowsr,2015-05-25 00:35:00,
2015-05-24 19:45:00,59.0,58.3,29.85,SE,135,0.7,1.6,97,0.05,,,0.27,fowsr,2015-05-25 00:45:00,
2015-05-24 19:55:00,59.0,58.3,29.85,ESE,112,1.6,2.2,97,0.04,,,0.27,fowsr,2015-05-25 00:55:00,
2015-05-24 20:05:00,59.0,58.3,29.84,NNE,22,0.7,2.2,97,29.22,,,0.27,fowsr,2015-05-25 01:05:00,
2015-05-24 20:15:00,58.8,58.4,29.84,WNW,292,1.6,2.2,98,0.02,,,0.27,fowsr,2015-05-25 01:15:00,
2015-05-24 20:25:00,58.8,58.4,29.83,SE,135,0.7,1.6,98,0.04,,,0.28,fowsr,2015-05-25 01:25:00,
2015-05-24 20:35:00,58.6,58.2,29.83,East,90,0.7,2.2,98,0.04,,,0.28,fowsr,2015-05-25 01:35:00,
2015-05-24 20:45:00,58.6,58.2,29.83,SE,135,2.2,3.1,98,0.04,,,0.29,fowsr,2015-05-25 01:45:00,
2015-05-24 20:55:00,58.6,58.2,29.82,SE,135,0.7,1.6,98,0.02,,,0.29,fowsr,2015-05-25 01:55:00,
2015-05-24 21:05:00,58.6,58.2,29.82,SE,135,0.7,1.6,98,0.04,,,0.31,fowsr,2015-05-25 02:05:00,
2015-05-24 21:15:00,58.5,58.0,29.82,South,180,0.0,1.6,98,0.04,,,0.31,fowsr,2015-05-25 02:15:00,
2015-05-24 21:25:00,58.5,58.0,29.82,SE,135,2.2,3.1,98,0.05,,,0.32,fowsr,2015-05-25 02:25:00,
2015-05-24 21:35:00,58.5,58.0,29.82,SE,135,0.7,1.6,98,0.04,,,0.32,fowsr,2015-05-25 02:35:00,
2015-05-24 21:45:00,58.5,58.0,29.81,WSW,247,0.7,1.6,98,0.05,,,0.33,fowsr,2015-05-25 02:45:00,
2015-05-24 21:55:00,58.5,58.2,29.81,NW,315,0.7,2.2,99,0.05,,,0.34,fowsr,2015-05-25 02:55:00,
2015-05-24 22:05:00,58.3,58.1,29.81,South,180,0.7,3.1,99,0.06,,,0.35,fowsr,2015-05-25 03:05:00,
2015-05-24 22:15:00,58.1,57.9,29.81,SE,135,0.7,1.6,99,0.06,,,0.37,fowsr,2015-05-25 03:15:00,
2015-05-24 22:25:00,58.1,57.9,29.80,SE,135,0.7,2.2,99,0.06,,,0.37,fowsr,2015-05-25 03:25:00,
2015-05-24 22:35:00,58.1,57.9,29.80,SE,135,0.7,1.6,99,0.06,,,0.38,fowsr,2015-05-25 03:35:00,
2015-05-24 22:45:00,58.1,57.9,29.79,SE,135,1.6,2.2,99,0.07,,,0.39,fowsr,2015-05-25 03:45:00,
2015-05-24 22:55:00,58.1,57.9,29.79,North,0,1.6,2.2,99,0.06,,,0.39,fowsr,2015-05-25 03:55:00,
2015-05-24 23:05:00,58.1,57.9,29.79,SE,135,1.6,2.2,99,0.07,,,0.40,fowsr,2015-05-25 04:05:00,